Stündliche Wetter La Barca

Heute, 11 Mai, Dienstag

Zeit Temperatur Niederschläge Wind Luftdruck Luftfeuchtigkeit
00:00 +19°C° 0 mm 0 m/S 635 mmHg 78%
01:00 +21°C° 0 mm 1 m/S 634 mmHg 79%
02:00 +20°C° 0 mm 1 m/S 634 mmHg 79%
03:00 +20°C° 0 mm 1 m/S 634 mmHg 80%
04:00 +20°C° 0 mm 1 m/S 634 mmHg 81%
05:00 +20°C° 0 mm 1 m/S 634 mmHg 82%
06:00 +19°C° 0 mm 0 m/S 635 mmHg 73%
07:00 +21°C° 0 mm 0 m/S 635 mmHg 64%
08:00 +23°C° 0 mm 0 m/S 636 mmHg 55%
09:00 +25°C° 0 mm 0 m/S 636 mmHg 49%
10:00 +29°C° 0 mm 1 m/S 636 mmHg 43%
11:00 +31°C° 0 mm 1 m/S 637 mmHg 36%
12:00 +31°C° 0 mm 2 m/S 636 mmHg 34%
13:00 +32°C° 0 mm 2 m/S 635 mmHg 31%
14:00 +33°C° 0 mm 3 m/S 635 mmHg 29%
15:00 +31°C° 0 mm 3 m/S 634 mmHg 34%
16:00 +29°C° 0 mm 4 m/S 634 mmHg 39%
17:00 +28°C° 0 mm 4 m/S 634 mmHg 45%
18:00 +27°C° 0.1 mm 3 m/S 634 mmHg 49%
19:00 +26°C° 0.1 mm 2 m/S 634 mmHg 54%
20:00 +25°C° 0.1 mm 2 m/S 635 mmHg 58%
21:00 +24°C° 0.3 mm 1 m/S 635 mmHg 62%
22:00 +23°C° 0.3 mm 1 m/S 635 mmHg 65%
23:00 +23°C° 0.3 mm 1 m/S 635 mmHg 68%

Morgen, 12 Mai, Mittwoch

Zeit Temperatur Niederschläge Wind Luftdruck Luftfeuchtigkeit
00:00 +23°C° 0.4 mm 1 m/S 635 mmHg 70%
01:00 +22°C° 0.4 mm 1 m/S 635 mmHg 72%
02:00 +22°C° 0.4 mm 1 m/S 634 mmHg 74%
03:00 +22°C° 0.2 mm 1 m/S 635 mmHg 76%
04:00 +22°C° 0.2 mm 1 m/S 635 mmHg 77%
05:00 +21°C° 0.2 mm 1 m/S 635 mmHg 79%
06:00 +23°C° 0.1 mm 1 m/S 636 mmHg 72%
07:00 +24°C° 0.1 mm 1 m/S 636 mmHg 66%
08:00 +25°C° 0.1 mm 1 m/S 637 mmHg 60%
09:00 +27°C° 0.1 mm 1 m/S 637 mmHg 52%
10:00 +29°C° 0.1 mm 1 m/S 637 mmHg 44%
11:00 +31°C° 0.1 mm 1 m/S 638 mmHg 37%
12:00 +31°C° 0.1 mm 2 m/S 637 mmHg 38%
13:00 +30°C° 0.1 mm 2 m/S 636 mmHg 39%
14:00 +29°C° 0.1 mm 2 m/S 636 mmHg 40%
15:00 +28°C° 0.1 mm 2 m/S 635 mmHg 42%
16:00 +28°C° 0.1 mm 1 m/S 635 mmHg 45%
17:00 +27°C° 0.1 mm 1 m/S 635 mmHg 47%
18:00 +26°C° 0 mm 1 m/S 635 mmHg 54%
19:00 +24°C° 0 mm 1 m/S 635 mmHg 60%
20:00 +23°C° 0 mm 1 m/S 636 mmHg 67%
21:00 +23°C° 0 mm 1 m/S 636 mmHg 67%
22:00 +23°C° 0 mm 1 m/S 636 mmHg 68%
23:00 +20°C° 0 mm 0 m/S 636 mmHg 69%

übermorgen, 13 Mai, Donnerstag

Zeit Temperatur Niederschläge Wind Luftdruck Luftfeuchtigkeit
00:00 +22°C° 0.2 mm 1 m/S 636 mmHg 70%
01:00 +22°C° 0.2 mm 1 m/S 635 mmHg 71%
02:00 +22°C° 0.2 mm 1 m/S 635 mmHg 72%
03:00 +22°C° 0.2 mm 1 m/S 635 mmHg 72%
04:00 +21°C° 0.2 mm 1 m/S 636 mmHg 72%
05:00 +21°C° 0.2 mm 1 m/S 636 mmHg 72%
06:00 +21°C° 0 mm 2 m/S 636 mmHg 66%
07:00 +24°C° 0 mm 2 m/S 637 mmHg 60%
08:00 +25°C° 0 mm 3 m/S 638 mmHg 54%
09:00 +27°C° 0 mm 2 m/S 638 mmHg 47%
10:00 +29°C° 0 mm 2 m/S 638 mmHg 41%
11:00 +31°C° 0 mm 2 m/S 638 mmHg 34%
12:00 +31°C° 0 mm 2 m/S 637 mmHg 33%
13:00 +31°C° 0 mm 2 m/S 636 mmHg 32%
14:00 +31°C° 0 mm 2 m/S 636 mmHg 30%
15:00 +30°C° 0 mm 2 m/S 635 mmHg 32%
16:00 +30°C° 0 mm 2 m/S 635 mmHg 34%
17:00 +29°C° 0 mm 2 m/S 635 mmHg 36%
18:00 +28°C° 0 mm 2 m/S 635 mmHg 40%
19:00 +27°C° 0 mm 2 m/S 635 mmHg 45%
20:00 +26°C° 0 mm 1 m/S 636 mmHg 49%
21:00 +25°C° 0.5 mm 2 m/S 636 mmHg 54%
22:00 +23°C° 0.5 mm 2 m/S 636 mmHg 60%
23:00 +21°C° 0.5 mm 2 m/S 637 mmHg 65%

14 Mai, Freitag

Zeit Temperatur Niederschläge Wind Luftdruck Luftfeuchtigkeit
00:00 +21°C° 0.5 mm 2 m/S 636 mmHg 68%
01:00 +21°C° 0.5 mm 1 m/S 636 mmHg 70%
02:00 +21°C° 0.5 mm 1 m/S 636 mmHg 73%
03:00 +20°C° 0.1 mm 1 m/S 636 mmHg 74%
04:00 +20°C° 0.1 mm 1 m/S 636 mmHg 75%
05:00 +19°C° 0.1 mm 1 m/S 636 mmHg 76%
06:00 +21°C° 0 mm 1 m/S 637 mmHg 69%
07:00 +22°C° 0 mm 1 m/S 637 mmHg 62%
08:00 +24°C° 0 mm 1 m/S 638 mmHg 54%
09:00 +26°C° 0 mm 1 m/S 638 mmHg 48%
10:00 +29°C° 0 mm 1 m/S 638 mmHg 42%
11:00 +31°C° 0 mm 1 m/S 638 mmHg 36%
12:00 +31°C° 0 mm 1 m/S 637 mmHg 34%
13:00 +32°C° 0 mm 1 m/S 637 mmHg 32%
14:00 +32°C° 0 mm 2 m/S 636 mmHg 30%
15:00 +31°C° 0 mm 2 m/S 636 mmHg 32%
16:00 +31°C° 0 mm 2 m/S 635 mmHg 34%
17:00 +30°C° 0 mm 2 m/S 635 mmHg 36%
18:00 +28°C° 0 mm 1 m/S 635 mmHg 41%
19:00 +27°C° 0 mm 1 m/S 635 mmHg 46%
20:00 +25°C° 0 mm 1 m/S 635 mmHg 51%
21:00 +25°C° 0.1 mm 1 m/S 635 mmHg 55%
22:00 +24°C° 0.1 mm 1 m/S 635 mmHg 59%
23:00 +24°C° 0.1 mm 1 m/S 636 mmHg 63%

15 Mai, Samstag

Zeit Temperatur Niederschläge Wind Luftdruck Luftfeuchtigkeit
00:00 +23°C° 0.3 mm 1 m/S 635 mmHg 66%
01:00 +23°C° 0.3 mm 1 m/S 635 mmHg 68%
02:00 +22°C° 0.3 mm 1 m/S 635 mmHg 71%
03:00 +21°C° 1.3 mm 1 m/S 635 mmHg 75%
04:00 +21°C° 1.3 mm 1 m/S 635 mmHg 79%
05:00 +20°C° 1.3 mm 1 m/S 635 mmHg 83%
06:00 +22°C° 0.5 mm 1 m/S 636 mmHg 75%
07:00 +23°C° 0.5 mm 1 m/S 637 mmHg 68%
08:00 +25°C° 0.5 mm 1 m/S 637 mmHg 61%
09:00 +26°C° 0.1 mm 1 m/S 637 mmHg 54%
10:00 +28°C° 0.1 mm 1 m/S 637 mmHg 47%
11:00 +30°C° 0.1 mm 1 m/S 638 mmHg 40%
12:00 +30°C° 0 mm 2 m/S 637 mmHg 38%
13:00 +30°C° 0 mm 2 m/S 636 mmHg 36%
14:00 +30°C° 0 mm 3 m/S 636 mmHg 34%
15:00 +31°C° 0 mm 3 m/S 635 mmHg 33%
16:00 +31°C° 0 mm 2 m/S 635 mmHg 32%
17:00 +31°C° 0 mm 2 m/S 635 mmHg 31%
18:00 +29°C° 0 mm 2 m/S 635 mmHg 40%
19:00 +27°C° 0 mm 2 m/S 634 mmHg 49%
20:00 +25°C° 0 mm 2 m/S 634 mmHg 58%
21:00 +24°C° 0 mm 2 m/S 635 mmHg 62%
22:00 +24°C° 0 mm 2 m/S 635 mmHg 66%
23:00 +23°C° 0 mm 1 m/S 635 mmHg 71%

16 Mai, Sonntag

Zeit Temperatur Niederschläge Wind Luftdruck Luftfeuchtigkeit
00:00 +22°C° 0.3 mm 1 m/S 635 mmHg 74%
01:00 +22°C° 0.3 mm 1 m/S 635 mmHg 76%
02:00 +21°C° 0.3 mm 1 m/S 635 mmHg 79%
03:00 +21°C° 0.1 mm 1 m/S 635 mmHg 80%
04:00 +18°C° 0.1 mm 0 m/S 635 mmHg 82%
05:00 +18°C° 0.1 mm 0 m/S 635 mmHg 83%
06:00 +20°C° 0 mm 0 m/S 636 mmHg 74%
07:00 +24°C° 0 mm 1 m/S 636 mmHg 65%
08:00 +26°C° 0 mm 1 m/S 637 mmHg 56%
09:00 +28°C° 0 mm 1 m/S 637 mmHg 47%
10:00 +30°C° 0 mm 2 m/S 637 mmHg 38%
11:00 +31°C° 0 mm 2 m/S 637 mmHg 29%
12:00 +32°C° 0 mm 2 m/S 637 mmHg 27%
13:00 +34°C° 0 mm 2 m/S 636 mmHg 25%
14:00 +34°C° 0 mm 2 m/S 636 mmHg 23%
15:00 +34°C° 0 mm 2 m/S 635 mmHg 24%
16:00 +32°C° 0 mm 2 m/S 635 mmHg 24%
17:00 +32°C° 0 mm 2 m/S 635 mmHg 25%
18:00 +30°C° 0 mm 2 m/S 635 mmHg 33%
19:00 +28°C° 0 mm 2 m/S 634 mmHg 41%
20:00 +26°C° 0 mm 2 m/S 634 mmHg 49%
21:00 +25°C° 0 mm 2 m/S 635 mmHg 53%
22:00 +24°C° 0 mm 2 m/S 635 mmHg 57%
23:00 +24°C° 0 mm 2 m/S 635 mmHg 61%
Mehr zeigen

Wir brauchen deine Erlaubnis

Meteoprog und unser Service Anbieter werden persönliche Daten aufbewahren, so wie Cookies, Geräte Bezeichnung oder ähnliche Technologien von deinem Gerät und Prozess, so wie Persönliche Daten Inhalte und Werbungen, genauso wie social Media und den Verkehr zu analysieren.

  • Aufbewahrung und/oder Zugang zu deiner Geräte Informationen.

    Cookies, Geräte Bezeichnung oder andere Informationen, können aufbewahrt oder Zugang zu deinem Gerät erhalten, für den Grund, der oben angegeben wird.

  • Personalisierte Werbung und Inhalte, Messungen, Einblick in das Publikum und Produkt Entwicklung.

    Werbungen und Inhalte können personalisiert werden, basierend auf ein Profil. Mehr Daten können besser personalisierte Werbungen und Inhalte hinzufügen. Werbung und Inhalte können gezeigt und gemessen werden. Einblicke über das Publikum, welche die Werbung gesehen haben und den Inhalt, können abgeleitet werden. So wie Daten können genutzt werden, um es zu verbessern oder die Benutzer Erfahrung zu verbessern das System und die Software.

Wenn du “Ich stimme zu” klickst, erlaubst du uns, die Cookies zu benutzen die Geräte Bezeichnung, den Web oder ähnliche Technologien zu benutzen. Deine Settings, können in deinem Gerät bei deinem Browser geändert werden.

Für den bestimmten Zweck, berechtigten Interessen beruhen darauf, mehr als auf den Inhalt. Du kannst mehr darüber in unseren Privaten und Cookie Politik lesen.